Find Starlink 4037

NORAD ID: 52663 Int'l Des: 2022-053 Owner: SPXS Country: US Constellation: starlink operational
LEOCIRCULAR

实时位置

正在加载3D地球...

关于 Starlink 4037

正在加载描述...

即将过境

Passes for default location (London). Set your location on the main map for personalized predictions.

高度历史

Loading altitude history...

两行轨道根数

1 52663U 22053H 26125.77176231 .00000193 00000-0 30188-4 0 9991
2 52663 53.2179 257.8723 0001358 91.8850 268.2298 15.08846369219664
Epoch: May 5, 2026 • Age: 10 hours

当前状态

高度 540.5 km
速度 7.60 km/s
星下点 27.45°N, 8.48°W
发射日期 May 18, 2022
运行时间 3.9 years
类型 internet

技术详情

分类 Payload
质量 297.00 kg
干质量 275.00 kg
总质量 297.00 kg
长度 0.20 m
直径 2.80 m
跨度 9.00 m
形状 Box + pan
制造商 SPXS
平台类型 Starlink
阶段状态 In Orbit
所有者/国家 SPXS/US

Most Searched